{"data":{"norad_id":45706,"epoch":"2026-05-25T06:00:02.000160Z","epoch_age_seconds":53117,"freshness":"FRESH","line1":"1 45706U 20035BB  26145.25002315  .00201383  00000+0  88422-3 0  9991","line2":"2 45706  53.0327 321.8464 0003554 277.0755  63.7080 15.83510618  5997","mean_motion":15.83510618,"eccentricity":0.0003554,"inclination_deg":53.0327,"raan_deg":321.8464,"arg_perigee_deg":277.0755,"mean_anomaly_deg":63.708,"bstar":0.00088422,"rev_number":599,"period_min":90.937186251314,"perigee_km":318.14105751567,"apogee_km":322.90246416287,"semimajor_km":6698.6587608393,"source":"CELESTRAK","updated_at":"2026-05-25T13:38:16.431194Z"}}